This is the latest recevied weather packets stored in our database for station/object BV5AB-13. If no packets are shown the sender has not sent any weather packets the latest 10 day(s).
| Time | Temp. | Humidity | Pressure | Rain* | Wind** | Luminosity | Snow |
|---|---|---|---|---|---|---|---|
| 1788143224 | 85° F | 74% | 744 mmHg | 0 in | - | - | - |
| 1788142623 | 84° F | 75% | 744 mmHg | 0 in | - | - | - |
| 1788142023 | 84° F | 79% | 744 mmHg | 0 in | - | - | - |
| 1788141423 | 84° F | 75% | 744.1 mmHg | 0 in | - | - | - |
| 1788140824 | 83° F | 77% | 744.1 mmHg | 0 in | - | - | - |
| 1788140223 | 83° F | 80% | 744.3 mmHg | 0 in | - | - | - |
| 1788139623 | 83° F | 80% | 744.4 mmHg | 0 in | - | - | - |
| 1788139024 | 82° F | 81% | 744.4 mmHg | 0 in | - | - | - |
| 1788138425 | 83° F | 82% | 744.4 mmHg | 0 in | - | - | - |
| 1788137824 | 82° F | 84% | 744.4 mmHg | 0 in | - | - | - |
| 1788137223 | 82° F | 82% | 744.4 mmHg | 0 in | - | - | - |
| 1788136624 | 81° F | 82% | 744.4 mmHg | 0 in | - | - | - |
| 1788136024 | 81° F | 82% | 744.4 mmHg | 0 in | - | - | - |
| 1788135424 | 81° F | 81% | 744.4 mmHg | 0 in | - | - | - |
| 1788134823 | 81° F | 85% | 744.4 mmHg | 0 in | - | - | - |
| 1788134223 | 80° F | 85% | 744.4 mmHg | 0 in | - | - | - |
| 1788133624 | 80° F | 87% | 744.3 mmHg | 0 in | - | - | - |
| 1788133023 | 79° F | 88% | 744.2 mmHg | 0 in | - | - | - |
| 1788132424 | 79° F | 90% | 744.3 mmHg | 0 in | - | - | - |
| 1788131823 | 79° F | 89% | 744.1 mmHg | 0 in | - | - | - |
| 1788131223 | 78° F | 88% | 744.1 mmHg | 0 in | - | - | - |
| 1788130623 | 78° F | 91% | 744.1 mmHg | 0 in | - | - | - |
| 1788130024 | 78° F | 91% | 744.1 mmHg | 0 in | - | - | - |
| 1788129425 | 77° F | 93% | 743.9 mmHg | 0 in | - | - | - |
| 1788128823 | 76° F | 95% | 743.9 mmHg | 0 in | - | - | - |
* Rain latest hour (hover to see other rain measurements)
** Current wind speed in m/s (hover to see current wind gust speed)